Theta_e
326 327 327 327 327 327 326 326 326 326 326 326 327 327 327 327 327 327 327 327 328 328 328 328 328 328 328 328 327 327 327 326 326 325 324 323 323 323 323 323 323 322 322 322 321 322 321 321 321 321 320 320 320 320 321 321 322 321 321 321 320 320 320 320 320 320 319 317 318 318 318 318 318 318 317 317 317 317 317 318 318 318 318 318 317
326 327 327 327 327 326 326 326 326 326 326 326 326 326 327 327 327 327 327 327 328 328 328 328 328 328 328 328 328 327 327 327 326 325 325 324 324 324 324 324 324 323 323 323 322 322 322 322 322 321 321 321 321 321 321 322 322 322 321 321 321 320 320 320 320 319 320 318 318 319 319 319 318 318 318 317 317 317 317 318 318 318 317 317 317
325 325 325 325 325 325 326 326 326 326 326 326 326 326 326 326 327 327 327 328 328 328 328 328 328 328 328 328 328 328 327 327 326 326 325 325 325 325 325 325 325 324 324 324 323 323 323 323 322 322 322 322 321 321 322 322 322 321 321 321 321 321 320 320 319 319 319 320 319 319 319 319 318 317 317 317 318 318 317 318 318 317 316 317 318
324 322 321 321 321 323 324 325 326 326 326 326 326 326 326 326 327 327 327 328 328 328 328 328 328 328 328 328 328 328 327 327 326 326 326 326 326 326 326 325 325 325 325 325 324 324 324 324 323 323 323 322 322 321 322 322 322 321 321 321 321 320 320 319 319 318 318 319 320 320 320 320 319 318 317 317 318 318 317 317 317 316 315 317 317
319 318 317 317 317 319 322 323 324 325 325 326 325 325 325 325 325 326 326 327 327 327 328 328 328 328 328 328 328 327 327 327 327 327 326 326 326 326 326 326 326 326 326 326 325 325 325 324 324 323 323 323 323 322 322 322 322 321 321 321 320 320 320 319 318 318 318 318 319 319 320 319 319 318 317 318 318 317 316 315 315 315 314 315 317
316 316 316 315 315 317 319 321 322 323 323 324 324 324 323 323 323 323 324 325 325 326 327 327 327 328 328 328 328 327 327 327 327 327 327 327 327 327 327 327 327 327 326 326 326 326 325 325 325 324 324 324 323 323 323 322 322 322 321 321 320 320 319 318 318 317 317 317 317 318 319 319 319 318 318 318 317 317 316 314 313 314 314 315 317
316 316 316 316 316 316 316 317 319 320 321 322 322 322 321 321 322 322 322 323 324 325 326 326 327 327 327 327 327 327 327 327 327 327 327 327 327 327 327 327 327 327 327 326 326 326 326 325 325 325 324 324 324 324 323 323 323 322 322 321 320 319 319 318 318 317 317 317 317 317 318 319 319 318 318 318 317 316 316 314 315 317 318 316 316
316 317 317 317 317 316 315 315 315 317 318 319 319 320 320 320 320 321 321 321 322 323 325 326 326 326 326 326 326 326 327 327 327 327 327 327 327 327 327 327 327 327 327 327 326 326 326 326 325 325 324 324 324 324 324 323 323 322 322 321 320 319 319 318 318 318 318 317 317 317 318 319 319 319 319 318 316 314 314 314 315 318 317 316 315
317 317 317 317 317 317 316 315 314 314 314 315 315 317 318 319 319 319 320 320 320 321 322 324 324 325 325 325 325 325 326 326 326 326 326 326 327 327 327 327 327 327 326 326 326 326 326 325 325 324 324 324 324 323 323 323 322 322 322 321 320 319 319 319 318 319 318 318 318 318 318 319 319 319 319 319 317 314 314 315 316 315 315 314 315
318 317 317 316 316 317 317 316 316 315 314 313 313 313 315 317 318 318 319 319 319 319 320 321 322 322 322 322 323 324 324 324 324 325 325 325 326 326 326 326 326 326 326 326 326 325 325 324 323 323 323 323 322 322 322 322 321 321 321 320 319 319 319 319 319 319 319 319 319 318 319 320 319 319 320 319 318 317 318 317 316 314 313 314 316
319 319 318 317 316 317 317 317 317 316 315 313 312 312 313 315 317 318 318 318 318 319 319 319 319 319 320 320 321 322 322 322 323 324 324 325 325 325 325 325 325 325 325 325 324 323 323 322 322 322 322 322 322 321 321 321 321 320 320 320 319 319 319 319 319 319 319 319 319 319 319 319 319 319 320 319 319 319 317 315 314 314 314 314 316
319 319 319 318 317 317 317 317 317 317 316 315 314 313 313 314 315 316 317 317 317 317 318 318 318 318 319 319 319 319 319 320 321 322 323 324 324 324 324 324 324 324 324 323 322 322 322 321 321 321 321 321 320 320 320 320 320 320 319 319 319 319 319 319 319 319 319 320 319 320 320 319 319 319 319 319 318 315 312 312 314 316 314 313 315
319 319 319 319 318 316 316 316 316 316 316 315 315 314 315 315 315 316 316 317 317 317 317 317 317 317 317 317 317 317 317 318 319 321 323 323 323 324 324 324 323 323 323 322 322 321 320 320 320 320 320 320 320 320 319 319 319 319 319 319 319 319 319 319 320 320 320 320 320 320 320 319 319 318 318 319 317 312 312 314 316 316 314 314 315
319 319 319 319 318 316 316 315 315 314 313 313 313 313 314 314 314 315 315 315 315 315 315 315 315 315 315 315 315 315 315 316 318 319 321 321 322 322 322 321 321 321 320 320 320 320 319 319 319 319 319 319 318 317 317 317 318 319 319 319 319 319 319 320 320 320 321 321 321 321 320 320 320 318 318 320 317 313 312 315 316 316 314 313 312
318 318 318 317 316 315 314 314 313 313 312 312 312 312 312 311 312 312 312 312 312 312 312 312 312 313 313 313 313 313 313 313 315 315 316 316 317 318 318 318 318 318 317 317 317 317 318 319 319 320 319 319 319 319 319 319 318 318 318 317 317 317 317 318 319 319 320 320 321 321 321 321 321 320 321 320 317 314 313 314 315 315 312 311 312
317 317 316 316 315 314 313 313 313 312 312 313 313 313 313 312 312 311 311 311 310 310 311 311 311 311 311 311 311 311 311 311 312 312 312 312 313 314 316 316 316 315 315 314 314 313 313 315 317 318 317 317 318 318 318 317 316 315 316 316 315 315 315 315 316 317 318 318 319 320 320 320 320 320 320 318 316 316 316 314 315 314 312 312 313
317 315 313 313 313 313 313 313 313 313 314 314 314 314 314 314 314 313 313 312 311 311 310 310 310 310 310 311 311 311 312 311 311 312 312 312 311 312 312 313 312 312 312 312 312 311 311 311 312 313 313 312 312 313 314 316 316 317 318 317 317 316 315 314 315 315 316 317 318 319 320 320 319 319 319 318 317 317 315 314 315 315 312 313 314
316 314 312 312 312 312 313 313 313 314 314 314 314 314 314 314 314 314 314 313 313 312 311 311 311 311 311 311 311 312 313 312 312 312 312 311 311 311 311 311 311 312 312 312 312 311 311 311 310 310 310 310 310 312 314 315 316 316 315 314 314 313 313 313 314 314 314 315 317 318 320 320 319 319 320 319 317 315 313 313 316 315 312 313 314
314 313 313 312 312 312 313 313 313 313 312 312 312 313 313 313 313 313 313 313 312 312 312 312 312 311 312 312 312 312 313 312 312 312 312 312 312 312 312 311 312 312 312 312 312 312 312 311 311 310 310 309 309 309 310 310 311 310 310 311 312 311 310 312 312 313 314 315 315 317 318 318 318 318 318 316 314 313 312 314 316 314 312 312 314
312 312 312 312 312 312 312 313 313 312 312 312 312 312 312 312 312 312 312 312 312 312 312 312 312 312 312 312 312 312 313 313 313 313 313 313 313 313 313 313 313 313 312 312 312 312 312 312 312 311 311 310 309 307 307 307 307 307 308 309 310 310 311 312 313 313 314 314 315 316 316 316 317 316 315 314 313 314 314 314 314 313 311 313 313
311 311 311 311 311 311 311 312 312 312 312 312 311 311 311 311 311 311 311 311 312 312 312 312 312 312 312 312 312 312 312 312 312 312 312 312 312 312 312 312 312 312 311 312 312 312 312 312 312 311 311 310 309 308 307 307 306 306 307 308 308 309 310 311 312 312 312 313 314 314 314 315 315 314 312 311 311 312 313 313 312 311 311 313 312
309 309 309 309 309 309 310 310 311 311 311 311 311 311 311 311 311 311 311 311 311 310 310 311 311 311 311 311 311 311 311 311 311 311 311 311 311 311 311 311 311 310 310 311 311 311 311 311 311 311 310 310 310 309 309 308 307 307 307 306 306 306 307 308 310 311 311 311 312 312 312 312 312 312 311 309 308 309 310 311 311 311 310 310 309
306 307 307 307 308 308 308 308 309 309 309 309 309 309 309 309 310 310 310 310 310 309 309 309 310 310 310 310 310 310 310 311 311 310 310 310 310 310 310 310 310 310 310 310 310 310 310 310 309 310 310 310 310 310 309 309 308 308 308 306 305 305 304 305 307 308 309 310 311 311 311 312 312 312 311 309 308 309 309 309 309 309 308 309 309
303 304 305 305 305 306 306 306 307 307 307 308 308 308 308 308 308 308 308 308 308 307 307 308 308 308 308 308 308 308 308 308 308 309 309 309 309 309 308 308 308 308 308 308 308 308 308 308 308 308 308 309 309 309 309 309 308 308 308 306 305 304 304 304 305 306 307 308 309 309 310 310 311 311 310 310 310 310 309 308 307 306 307 307 308
302 302 303 303 303 303 303 303 304 305 305 305 306 306 306 306 306 306 307 307 307 306 306 306 306 306 307 307 307 307 307 307 307 307 307 307 307 307 307 307 306 306 306 306 306 306 306 306 306 306 307 307 307 307 308 308 307 307 307 306 305 304 304 304 304 304 305 306 307 308 308 308 309 310 310 310 310 309 308 307 305 304 304 305 306
302 302 302 302 301 301 301 301 302 302 302 303 303 303 304 304 304 304 305 305 305 305 305 305 305 306 306 306 306 306 305 305 306 306 306 306 306 306 306 306 305 305 304 304 304 304 304 304 305 305 306 306 306 306 306 307 307 307 306 306 305 305 304 304 304 304 303 304 305 306 307 307 308 308 308 308 308 307 306 305 304 303 304 304 305
301 301 301 301 301 300 300 301 301 300 301 301 301 301 301 301 302 302 302 303 303 303 303 304 304 304 304 304 304 304 303 304 305 305 305 305 306 305 305 305 304 304 304 303 303 303 303 304 304 304 304 304 304 305 305 305 306 306 306 306 306 305 304 303 302 302 303 303 303 303 304 304 304 305 305 305 304 304 304 303 303 304 304 305 305
301 301 301 301 301 301 301 301 301 301 301 301 301 301 301 301 301 301 301 301 301 301 301 301 301 301 301 302 302 302 301 301 302 302 303 303 304 304 305 305 305 304 304 303 303 303 304 304 304 303 303 304 304 304 304 304 305 305 305 305 305 305 304 303 302 302 302 302 302 302 301 301 301 301 301 301 302 302 302 303 303 304 304 304 304
302 302 302 302 302 302 302 302 302 302 303 303 303 302 302 303 303 303 302 302 302 301 301 301 301 301 301 301 301 301 301 301 301 301 301 301 301 302 302 303 303 303 303 303 304 304 304 304 304 303 303 303 303 303 303 304 304 304 304 305 305 305 305 304 304 304 303 302 301 301 300 299 299 299 299 300 300 301 301 302 303 303 303 303 302
299 299 299 299 300 300 299 299 299 299 300 300 300 300 300 301 301 302 302 301 301 302 302 302 302 302 302 303 302 302 302 302 302 302 302 301 301 301 301 301 301 301 302 302 303 304 304 304 304 303 303 303 303 303 303 303 303 303 304 304 304 304 304 304 304 304 303 302 301 301 300 298 298 298 298 299 299 299 300 300 301 301 301 301 302
297 297 297 297 297 298 298 298 297 297 297 297 298 298 299 299 298 298 299 298 298 298 299 299 299 300 301 301 302 302 302 302 303 303 303 303 303 303 303 302 302 301 301 301 301 302 302 302 303 303 303 303 303 303 303 303 303 303 303 303 303 304 304 304 304 303 302 301 300 300 299 298 297 297 297 298 298 299 299 299 300 300 300 301 301
297 297 297 296 296 296 296 296 296 296 296 296 296 296 297 297 297 296 296 296 296 296 296 296 296 296 297 297 298 298 299 299 299 300 300 301 302 302 303 303 303 303 303 302 302 301 301 301 302 302 302 302 302 303 303 303 303 303 303 303 303 303 303 303 302 302 301 301 300 299 298 298 297 297 297 298 298 299 299 299 299 300 300 300 301
295 295 295 295 294 294 294 294 294 294 294 294 294 294 294 294 295 295 295 295 294 294 294 294 294 294 294 294 295 295 295 296 296 296 297 297 298 298 299 300 301 302 303 303 303 303 303 302 302 301 301 302 302 302 302 303 303 303 303 303 303 302 302 301 301 300 299 299 298 298 297 297 297 297 297 298 298 298 299 299 299 299 299 300 300
292 292 292 292 292 292 292 292 292 292 292 292 292 292 292 292 292 293 294 294 294 294 293 293 293 293 293 293 293 293 294 294 294 294 295 295 295 296 296 297 297 298 299 300 301 302 302 303 303 303 302 302 301 302 302 302 302 302 302 302 302 302 302 301 300 300 299 298 297 297 297 297 297 297 298 298 298 298 298 298 298 298 298 299 299
291 291 291 291 291 291 291 291 291 291 291 291 291 291 291 291 291 291 292 293 293 294 293 293 293 293 293 293 293 293 293 293 293 294 294 294 294 294 294 295 295 295 296 296 297 298 299 300 301 302 302 302 301 301 301 301 301 301 301 301 301 302 302 301 301 301 300 299 298 298 297 297 297 297 298 298 298 298 298 298 298 298 298 298 298
290 290 290 290 290 290 290 290 290 290 290 290 290 290 290 290 290 290 291 291 292 292 293 293 292 292 292 292 292 293 293 293 293 293 293 293 293 293 293 293 293 294 294 294 294 295 295 296 297 298 299 300 301 301 301 301 300 300 300 300 300 301 301 301 301 301 301 300 299 298 298 297 297 297 297 298 298 298 298 298 298 298 297 297 297
289 289 289 289 289 289 289 289 289 289 290 290 290 290 290 290 290 290 290 290 290 291 291 292 292 292 292 292 292 292 292 292 292 292 292 292 292 292 292 292 292 292 292 292 293 293 293 294 294 295 296 297 298 299 300 300 301 300 300 300 300 300 300 300 300 301 301 301 300 299 299 298 298 298 297 297 298 298 298 298 298 297 297 296 296
288 288 288 289 289 289 289 289 289 289 289 289 289 289 289 289 289 289 289 289 289 289 290 290 290 291 291 291 291 291 291 292 292 292 292 291 291 291 291 291 291 291 291 292 292 292 292 292 293 293 294 294 295 296 297 298 299 300 300 300 300 299 299 299 299 299 300 301 301 301 299 299 298 298 298 298 298 298 298 297 297 296 296 296 295
287 288 288 288 288 289 289 289 289 289 289 289 289 289 289 289 289 289 289 289 289 289 289 289 289 289 289 290 290 290 290 291 291 291 291 291 291 290 290 290 290 290 290 290 290 291 291 291 292 292 292 293 293 294 295 295 296 297 298 298 299 300 300 299 299 298 298 299 300 301 300 299 298 298 297 297 297 297 297 297 296 296 296 296 296
287 287 287 288 288 288 288 288 288 288 288 288 288 288 289 289 289 289 289 289 288 288 288 288 288 287 288 288 288 289 289 289 289 289 289 289 289 289 289 289 289 289 289 289 289 289 290 290 291 291 291 292 292 292 293 294 294 295 295 296 297 298 299 299 299 298 298 298 298 299 300 300 299 298 297 296 297 296 296 296 295 295 295 295 295
288 287 287 287 288 287 287 288 288 287 287 287 287 287 287 287 288 288 288 288 287 287 287 287 287 286 286 287 287 287 287 288 288 288 288 288 288 288 288 288 288 288 288 288 288 288 289 289 289 290 290 291 291 291 292 292 293 294 294 294 295 295 296 297 297 298 298 297 297 298 299 299 299 298 297 297 296 296 296 296 295 295 295 294 293
287 287 287 287 287 287 287 287 287 287 287 287 287 286 286 286 286 286 286 286 286 286 286 286 285 285 285 285 285 285 286 286 287 287 287 287 287 287 286 287 287 287 287 287 287 287 287 288 288 289 289 289 290 290 291 291 292 292 293 293 294 294 294 295 295 296 296 297 297 297 298 298 297 297 297 297 296 296 296 296 296 295 294 293 293
287 287 287 287 287 287 287 286 286 286 286 286 286 285 285 285 285 285 285 285 285 284 284 284 284 284 284 284 284 284 284 285 285 285 285 285 285 285 285 285 285 285 285 285 285 285 286 286 287 287 287 288 288 289 289 290 290 291 291 292 292 293 293 294 294 294 295 295 296 297 297 297 296 296 296 296 296 296 296 296 296 295 294 293 292
286 286 286 286 286 286 285 285 285 285 285 285 285 284 284 284 284 284 283 283 283 283 283 282 282 282 282 282 282 282 282 282 282 282 283 283 283 283 282 282 282 283 283 283 283 283 284 284 285 286 286 286 287 287 287 288 288 288 289 290 290 291 292 293 293 293 293 293 294 295 295 294 295 295 295 295 295 295 296 296 295 295 294 293 292
285 285 285 285 285 285 284 284 284 284 284 283 283 283 283 283 283 283 283 282 282 282 281 280 280 279 279 279 279 279 279 279 279 279 279 279 279 279 280 280 280 281 281 281 281 281 282 282 283 283 284 284 285 285 285 286 286 287 287 288 288 289 290 291 291 292 291 291 292 292 292 292 293 294 294 295 295 295 295 295 295 294 293 293 292
284 284 284 284 284 284 284 284 283 283 283 283 283 283 282 282 282 282 281 280 280 279 279 279 278 278 278 278 278 278 278 277 277 276 276 277 277 278 278 278 278 278 279 280 280 280 280 281 282 282 283 283 283 283 284 284 284 285 286 286 287 287 287 288 288 289 289 289 290 290 291 291 292 293 294 294 294 294 294 294 294 294 293 292 291
283 283 283 283 283 283 283 283 283 282 282 282 282 281 281 281 280 280 279 279 278 278 278 278 278 278 278 278 277 277 277 277 276 275 275 276 276 276 277 277 277 277 277 278 279 279 280 281 281 281 282 282 283 283 283 283 283 283 284 284 285 285 285 286 287 287 288 288 289 290 290 291 291 292 293 294 294 294 294 293 293 293 292 291 290
282 282 282 282 282 282 282 281 281 281 281 281 280 280 280 280 279 279 279 279 278 278 278 278 278 278 278 278 278 277 277 277 277 276 276 276 276 276 276 276 276 276 277 277 278 279 279 280 280 280 280 281 281 281 282 282 282 283 283 284 284 284 284 285 286 286 287 288 289 290 290 291 291 292 292 293 293 293 293 293 292 292 291 290 289
281 281 281 281 281 281 281 281 281 280 280 281 281 280 280 280 280 280 280 279 279 279 279 278 278 278 278 278 278 278 278 277 277 277 277 276 276 276 276 276 276 276 276 277 277 278 278 278 278 278 278 279 279 280 280 281 281 282 283 283 284 284 284 285 286 286 287 287 288 289 290 290 291 291 292 292 292 292 292 292 291 291 290 288 287
281 281 281 281 281 281 280 280 280 280 280 281 281 281 281 280 280 280 280 280 280 280 279 279 279 279 279 278 278 278 277 277 277 276 276 276 276 276 276 276 276 276 276 276 277 277 277 277 277 277 278 278 278 279 280 280 281 282 282 283 284 284 284 285 285 286 287 287 287 287 288 289 290 290 291 291 291 291 291 290 290 289 288 288 287
280 280 281 280 280 280 280 280 280 280 280 281 281 281 281 281 281 280 280 280 280 280 280 279 279 279 279 279 279 279 278 278 277 277 276 276 276 276 276 276 276 276 276 276 276 276 276 276 277 277 277 278 278 279 279 280 280 281 281 282 283 284 284 285 285 286 286 286 286 286 287 288 289 289 290 290 290 290 290 289 289 288 287 286 286
Wind_Speed
39 40 42 44 46 47 48 49 50 51 52 52 54 55 55 55 55 55 55 56 55 55 55 54 54 53 53 52 51 50 49 48 47 46 47 46 45 45 45 46 46 45 44 46 46 46 47 46 45 44 44 46 45 45 46 46 46 45 44 43 41 42 41 41 45 47 43 40 41 40 38 36 35 32 30 29 28 26 26 27 28 28 29 30 29
39 40 41 44 46 47 47 48 49 50 51 51 52 52 53 53 53 54 55 55 55 55 54 53 53 53 53 52 52 51 50 49 48 48 48 47 46 46 46 46 46 45 45 46 45 46 47 46 45 44 44 46 46 45 46 46 45 45 44 44 44 43 43 42 43 46 45 40 39 40 38 36 36 35 33 34 32 29 28 29 29 29 30 30 31
37 39 41 43 44 46 46 47 48 49 50 50 50 50 50 51 52 53 54 54 54 54 53 52 52 52 52 52 51 51 50 50 49 48 48 47 47 47 46 46 46 46 45 44 44 45 46 46 45 43 44 46 46 46 46 46 45 45 45 45 46 45 45 44 43 45 46 42 39 40 39 37 36 36 36 35 33 32 32 32 31 31 31 32 31
34 35 37 38 39 42 44 44 46 47 48 49 48 48 48 49 50 51 52 52 52 52 51 51 50 51 51 51 50 50 50 49 49 48 48 47 47 46 46 46 46 45 44 43 43 44 45 45 44 42 43 46 47 46 46 46 45 45 46 46 47 47 46 46 45 44 46 44 40 39 39 39 37 36 36 35 34 34 34 34 34 33 33 33 33
30 32 34 34 35 36 38 41 43 44 46 46 46 46 47 48 48 48 49 49 49 49 49 49 48 49 49 49 48 48 48 48 48 48 47 47 47 46 45 46 45 44 43 42 42 43 44 44 43 42 43 46 47 46 46 45 45 45 46 46 47 47 46 45 44 43 44 45 43 40 39 39 38 37 36 35 35 35 35 35 35 35 34 33 34
27 29 30 31 31 32 34 37 40 42 44 44 45 45 45 46 46 45 45 45 46 46 46 46 46 46 46 45 45 45 45 45 46 46 45 45 46 45 45 45 44 43 43 42 42 42 43 44 43 42 44 45 47 47 45 45 45 45 46 46 46 46 45 44 44 43 44 44 43 41 39 40 40 40 39 38 39 38 36 35 36 36 35 34 36
24 25 26 27 28 29 31 33 36 39 41 42 43 43 43 43 42 41 41 42 42 43 42 42 42 42 42 41 42 42 42 43 44 43 44 44 44 45 44 44 44 43 43 43 43 43 44 44 44 43 44 46 46 47 46 45 45 45 46 45 45 44 44 44 44 44 44 43 41 40 40 41 42 43 42 42 42 42 39 37 37 37 36 36 37
20 21 23 24 26 27 28 31 33 36 38 40 41 41 41 40 39 38 39 39 38 38 37 38 37 37 38 38 38 39 40 41 42 42 42 42 43 43 43 43 43 43 43 43 43 43 44 44 44 44 45 46 46 46 46 46 45 46 45 45 44 44 44 45 44 43 43 42 41 41 41 42 43 45 44 43 43 44 42 39 38 38 39 39 39
14 15 18 20 21 22 25 27 30 32 35 37 38 39 39 38 37 37 36 35 34 33 33 33 34 35 35 36 36 37 39 40 40 40 40 40 41 41 41 42 43 43 43 43 43 43 43 44 44 44 44 45 45 46 46 45 45 46 46 45 45 45 44 44 44 43 42 42 42 42 43 44 45 46 47 46 44 42 39 38 39 40 39 40 40
12 13 15 16 18 20 22 24 26 29 31 33 34 35 36 36 36 35 34 33 32 31 31 32 32 33 34 34 35 36 37 38 38 38 38 38 38 39 39 40 41 41 42 42 42 43 43 43 44 43 44 44 44 45 45 45 45 46 46 45 45 44 44 44 44 44 43 43 44 44 45 47 48 48 49 48 44 41 40 41 44 42 39 40 43
12 13 14 16 18 20 21 22 24 25 26 28 29 30 31 32 33 33 32 31 30 30 30 31 32 32 33 33 34 34 35 35 34 35 35 35 36 37 38 39 39 40 40 41 42 42 42 42 42 42 43 43 43 43 43 44 44 45 45 45 44 44 44 45 45 44 43 44 44 44 46 48 48 47 48 48 46 47 47 46 46 42 40 43 45
13 13 14 15 17 19 20 21 21 20 20 20 21 23 25 27 29 29 29 29 28 29 30 30 31 31 31 31 31 30 30 30 30 32 32 33 34 35 36 37 37 39 39 40 41 41 41 41 41 41 42 42 42 42 42 42 42 43 43 43 43 43 44 44 45 44 44 45 46 47 47 48 48 48 49 49 48 48 46 43 42 41 41 44 45
13 13 14 14 15 17 18 19 18 16 15 15 16 17 19 22 24 25 26 26 27 28 28 28 28 28 28 28 27 26 26 26 27 29 31 32 33 34 35 36 37 39 39 40 40 40 40 40 41 41 42 41 41 41 41 42 42 42 42 41 42 42 43 44 44 44 44 45 48 49 48 47 48 48 49 49 46 43 41 40 41 41 42 44 45
13 14 14 14 14 15 17 17 16 16 15 14 14 14 16 18 19 21 22 23 23 23 24 24 24 24 24 24 23 23 23 23 25 27 28 30 31 33 34 35 36 37 38 38 39 39 39 40 41 41 41 41 42 41 41 42 43 43 43 43 44 43 43 44 45 45 47 48 51 52 50 48 48 48 47 46 44 41 40 41 41 40 40 42 42
14 15 16 15 15 15 16 16 15 15 15 15 14 14 14 15 16 17 18 19 20 20 20 21 21 21 21 21 21 21 21 22 24 24 25 27 28 30 32 33 34 35 36 37 37 38 39 40 42 42 42 42 42 41 42 43 43 43 43 44 45 44 44 44 44 44 46 49 52 54 52 52 52 51 48 47 47 43 40 40 40 39 39 40 39
14 15 17 17 16 17 17 16 14 13 13 13 13 13 13 13 14 15 17 18 19 20 20 20 20 20 20 20 21 20 20 21 23 23 24 25 27 30 32 33 35 36 36 36 37 38 39 41 43 44 44 44 44 44 45 44 43 43 43 43 44 44 44 43 41 42 44 45 48 49 49 49 49 49 49 49 48 44 40 40 41 40 41 41 40
13 14 14 14 14 14 15 14 12 12 12 13 13 13 13 13 14 15 16 17 18 18 19 19 19 19 20 20 21 20 19 20 22 22 23 24 26 28 30 32 33 34 34 34 35 36 37 39 40 42 43 43 43 43 42 41 41 42 43 44 44 46 47 45 42 42 43 42 44 45 47 48 47 49 50 48 45 43 41 43 44 43 43 44 44
12 14 13 12 12 12 12 12 11 12 13 13 13 13 13 13 14 14 14 15 15 15 16 17 17 18 18 18 19 19 18 18 20 20 20 21 23 25 26 28 30 31 31 31 32 33 34 35 36 38 40 41 41 42 41 41 43 45 45 45 46 48 49 46 44 44 42 41 42 43 46 47 46 48 51 48 46 46 46 47 47 44 44 47 45
11 13 13 13 13 12 12 12 12 12 12 12 13 13 13 13 13 13 14 14 14 14 15 16 15 16 16 16 17 19 18 18 19 20 20 20 22 24 25 27 29 30 30 30 30 30 31 31 32 33 35 36 37 38 39 41 43 44 43 44 47 49 47 44 43 44 42 41 42 42 44 45 44 46 49 49 49 48 47 47 47 46 47 47 44
8 10 11 12 12 12 12 13 13 12 12 12 12 12 13 13 13 14 14 14 15 15 16 17 16 16 17 18 19 20 20 20 20 22 23 23 24 26 27 29 30 30 30 30 30 30 30 30 29 29 29 30 31 32 34 35 38 40 40 43 47 48 45 43 43 43 42 42 42 41 42 44 44 44 45 46 46 46 46 47 48 47 48 48 46
6 7 8 8 9 9 10 10 11 11 11 11 11 11 12 12 13 13 14 15 16 16 17 18 18 18 19 20 20 20 21 21 21 22 24 24 24 25 27 28 28 29 30 30 31 31 30 29 28 27 27 28 29 30 31 32 34 37 39 42 44 44 43 42 42 41 41 42 42 42 43 45 44 43 44 45 46 47 48 49 48 47 48 49 48
3 4 4 5 5 5 6 6 6 7 8 8 9 9 9 10 10 11 12 13 14 15 16 17 18 18 19 20 21 21 21 23 23 22 23 24 24 25 26 27 27 28 30 32 31 31 30 28 27 27 27 28 28 29 30 30 31 34 36 38 39 39 41 42 42 40 40 40 42 43 45 45 44 43 44 44 42 41 43 44 45 46 49 49 46
2 3 3 2 2 2 3 3 3 4 4 5 6 6 7 8 8 9 10 10 11 12 13 15 17 18 18 19 20 21 22 23 24 23 24 24 25 26 27 27 27 28 31 32 31 30 29 28 28 27 27 27 28 28 29 29 30 31 32 32 32 32 34 37 39 40 41 41 42 44 45 45 44 44 44 41 37 36 37 39 40 41 44 45 44
3 4 4 3 2 1 1 1 0 1 1 2 3 3 4 5 6 7 7 8 8 8 10 12 12 13 15 15 15 16 18 19 20 20 21 22 23 24 25 25 26 27 29 31 30 28 28 26 26 26 26 26 27 27 28 29 29 30 30 30 30 29 30 32 35 37 39 41 42 43 44 44 44 44 43 40 37 36 36 36 36 36 38 42 43
3 4 5 5 5 4 4 4 3 3 3 2 2 2 2 3 3 4 4 5 5 5 6 7 8 8 9 10 9 10 11 12 13 14 16 17 17 18 19 20 21 22 25 26 26 25 25 25 25 25 25 26 26 26 27 27 27 28 29 30 31 31 30 31 32 35 38 40 41 42 42 42 42 42 40 38 37 36 37 39 39 38 38 39 41
4 4 4 4 5 5 5 5 5 5 4 3 3 3 3 3 3 3 4 4 4 4 4 5 5 5 6 6 5 5 6 8 9 10 12 12 12 13 14 14 15 17 19 21 21 21 22 22 23 23 24 24 25 26 26 26 26 26 27 28 30 31 30 30 30 33 36 37 38 40 40 39 39 39 38 38 40 42 43 41 38 34 33 34 36
7 6 6 6 5 5 4 4 4 4 4 4 4 4 4 4 3 3 3 3 4 4 4 4 5 5 5 5 5 5 5 7 9 9 10 11 11 11 12 13 13 15 16 17 18 19 20 20 21 21 21 22 22 23 24 25 25 25 25 25 27 28 29 29 29 31 33 34 36 37 37 37 38 39 40 42 44 45 43 37 33 32 32 33 35
6 5 4 4 4 3 3 2 1 1 1 1 1 1 2 3 3 4 4 4 4 4 5 5 5 6 6 6 5 5 6 8 10 10 10 11 11 12 13 13 14 15 16 17 19 20 20 20 20 20 20 20 21 21 21 22 23 24 24 24 25 26 27 27 29 31 33 34 35 36 37 38 39 41 42 42 43 41 38 34 33 33 33 34 36
4 4 4 4 4 4 4 5 5 5 5 5 5 5 6 6 6 7 8 8 8 7 7 7 8 8 9 9 9 8 8 10 12 14 14 14 14 13 13 14 16 16 17 19 20 21 20 20 20 20 20 20 21 20 20 20 21 21 21 22 22 23 24 26 28 30 31 32 34 37 38 38 37 36 37 38 39 38 36 35 34 34 34 36 38
4 4 4 5 5 5 6 6 7 8 8 8 8 7 7 7 7 7 8 8 9 10 10 11 12 12 13 13 14 14 14 15 16 16 17 17 17 17 16 16 17 18 19 20 21 22 21 21 20 20 20 21 21 21 20 20 20 20 20 20 21 21 22 24 25 26 27 28 30 32 32 32 30 30 32 35 36 36 36 35 35 36 37 39 40
5 5 5 5 6 6 7 8 8 9 10 10 11 10 9 8 7 6 6 7 8 9 9 10 11 13 14 14 15 16 16 17 18 19 20 20 20 20 20 20 20 20 21 21 22 22 22 22 21 21 21 22 22 22 22 22 21 21 21 20 20 20 21 22 22 22 23 24 25 26 27 28 28 29 30 32 33 34 35 35 36 38 39 39 39
7 7 7 7 7 8 8 9 10 10 11 11 12 13 13 13 11 10 8 8 8 9 10 10 10 12 13 14 15 15 16 17 18 18 20 21 21 22 23 23 23 23 23 24 24 23 23 24 24 23 23 24 24 23 23 23 23 23 22 22 21 20 20 20 19 19 20 21 22 24 26 28 30 29 28 28 30 31 33 34 35 37 37 37 37
7 7 7 7 8 8 9 9 10 10 11 12 12 13 14 15 16 16 14 13 12 12 12 12 13 14 15 15 15 16 16 17 18 18 19 20 20 22 23 23 23 23 24 25 25 25 25 26 27 26 26 27 26 26 25 25 24 24 24 24 23 22 20 18 17 18 19 20 20 22 23 25 26 27 26 27 28 30 32 33 33 34 35 36 38
5 6 6 6 7 8 9 10 11 12 12 13 14 14 15 16 17 18 19 20 19 18 17 17 17 18 18 18 18 19 19 19 20 20 21 20 21 23 25 24 23 23 24 25 26 26 26 27 27 27 28 28 29 29 28 27 26 25 25 25 25 24 22 20 18 18 19 19 21 22 23 23 24 25 26 27 29 31 33 34 34 35 36 37 38
6 7 8 9 10 10 11 12 13 14 15 15 16 17 18 19 19 20 22 23 25 25 25 24 23 22 23 23 23 23 23 23 24 24 25 24 24 25 27 27 25 24 24 25 26 26 27 27 28 28 27 28 29 29 30 30 29 28 27 27 26 25 24 23 22 21 20 21 22 22 22 24 25 26 27 28 30 31 33 34 35 36 37 38 38
9 10 11 12 13 14 14 15 16 17 18 18 19 20 20 21 22 23 24 25 27 29 30 30 29 28 28 27 27 27 28 28 28 29 29 28 27 28 29 30 30 29 28 28 27 27 27 28 28 28 28 28 28 29 29 30 30 30 30 30 30 29 28 26 25 24 23 23 23 23 23 24 25 27 28 30 31 32 33 33 34 35 36 37 37
13 13 15 16 17 18 18 19 20 21 21 22 22 23 23 24 24 25 26 27 28 30 31 33 33 33 33 32 32 32 32 33 33 33 33 32 31 30 31 32 33 34 34 33 31 30 31 30 29 29 30 30 30 30 30 31 31 31 31 32 32 32 31 30 29 28 27 26 25 24 24 24 24 26 28 31 33 34 35 35 35 36 36 36 36
16 17 18 19 20 20 21 22 22 23 23 24 24 25 25 26 26 26 27 28 28 29 31 32 33 35 35 35 35 35 36 36 37 37 37 36 36 35 35 35 35 36 37 37 35 35 36 35 33 32 32 32 32 32 33 33 33 33 33 33 33 33 33 32 32 31 31 31 29 27 26 26 25 26 29 31 33 35 36 37 37 37 37 36 36
19 19 20 20 21 21 22 22 23 23 24 24 25 25 26 26 27 28 28 29 29 30 30 31 32 33 34 36 36 37 38 38 38 38 39 39 38 38 38 38 38 39 39 39 38 37 38 39 38 37 36 36 35 35 35 35 36 35 35 35 36 36 36 35 34 33 33 33 33 31 30 29 28 29 31 33 34 36 38 39 39 38 37 37 36
21 21 21 22 22 22 22 23 23 23 24 24 25 25 26 27 27 28 29 30 30 31 31 31 31 32 32 34 35 36 38 39 39 38 38 38 38 38 38 38 38 39 39 39 39 38 39 40 40 39 39 39 38 38 37 37 38 38 38 38 38 39 39 38 37 36 35 34 34 33 33 32 31 31 33 35 36 37 38 39 39 38 37 37 36
22 22 22 22 23 23 23 23 23 23 23 24 24 25 25 26 26 27 28 29 30 30 30 30 31 31 31 32 32 33 35 37 38 38 37 37 37 37 37 37 37 38 38 38 38 38 38 39 40 40 40 40 40 40 39 39 39 39 40 40 40 41 41 40 40 39 38 36 35 34 34 34 33 32 33 34 35 36 37 38 38 37 37 37 36
21 21 22 21 22 22 22 22 22 22 22 23 23 23 23 24 25 25 26 27 28 28 29 30 30 30 30 30 31 31 32 35 36 37 37 37 36 36 36 36 37 37 38 38 38 37 38 39 40 40 40 40 40 39 39 39 40 39 40 41 41 42 42 42 42 41 40 38 37 35 35 35 34 34 33 33 32 33 35 36 37 37 37 37 37
19 19 19 19 20 20 20 20 20 20 20 21 21 21 21 22 23 23 24 25 26 27 28 29 30 30 30 30 30 31 32 33 35 36 36 37 37 37 36 36 36 36 37 38 38 38 38 39 40 40 40 39 39 38 38 38 39 39 39 41 42 43 43 43 42 42 41 40 39 38 36 36 35 35 34 33 33 33 34 35 36 37 37 37 37
17 17 16 16 16 16 16 16 17 17 17 17 18 18 19 19 20 21 22 23 24 25 26 27 28 29 30 30 30 30 30 31 32 33 34 35 35 35 35 36 36 37 38 38 38 37 38 39 41 41 41 40 39 38 37 36 36 36 37 38 40 42 43 43 42 42 41 41 41 40 39 38 37 36 35 35 35 35 36 37 38 38 38 38 37
13 13 13 14 14 13 14 14 14 14 15 15 15 16 16 17 18 18 19 21 22 23 25 26 28 29 30 30 30 29 30 30 30 30 30 31 32 33 33 33 34 34 35 36 36 36 36 38 39 41 42 41 40 39 38 36 35 35 36 37 39 42 44 44 43 41 40 41 41 41 40 39 38 38 37 37 37 37 38 39 39 39 39 39 39
11 11 11 12 12 12 12 13 13 14 15 15 16 16 17 17 18 18 19 20 22 23 24 26 27 28 29 29 30 30 30 30 30 30 30 31 32 32 32 32 32 34 35 36 36 36 35 35 35 37 39 40 41 41 41 40 39 38 37 38 39 41 42 42 41 40 40 41 41 41 40 39 39 40 40 39 39 39 39 40 40 41 40 40 39
11 11 11 11 12 13 13 14 15 16 17 17 18 19 19 19 19 19 19 20 20 21 22 23 24 26 27 28 29 29 30 30 30 31 31 32 32 33 33 33 34 36 36 35 34 33 32 32 33 35 37 39 40 41 42 42 41 40 39 38 38 39 39 38 39 39 40 40 40 41 41 40 40 41 41 42 42 41 41 41 41 41 41 40 40
12 12 13 14 14 15 16 16 17 18 18 18 19 19 19 19 19 20 20 20 21 22 23 24 25 26 27 27 28 29 30 31 31 31 31 32 33 33 34 34 35 36 35 34 33 32 33 34 36 37 37 38 39 40 41 41 41 40 40 40 40 40 39 38 38 39 39 40 41 42 42 42 42 42 43 43 43 42 41 41 41 41 41 41 40
11 12 13 14 15 15 15 16 16 17 17 17 18 19 20 20 21 21 22 23 24 24 25 26 27 28 29 29 30 30 30 31 32 32 32 32 33 33 34 34 34 35 35 35 36 36 36 37 37 37 36 37 38 39 40 40 40 41 41 41 41 41 40 38 38 38 38 39 41 43 43 44 44 44 44 43 43 42 41 41 41 41 41 41 40
10 10 11 12 12 13 14 14 15 15 16 17 18 19 20 20 21 22 23 23 24 25 26 28 29 30 30 31 32 32 32 32 32 32 33 33 33 33 33 33 33 33 34 34 35 35 35 35 35 35 36 36 37 38 39 40 40 41 41 42 42 42 41 40 39 38 37 37 38 41 43 44 44 44 44 44 43 42 41 41 41 41 41 40 40
8 8 9 10 10 11 12 13 14 14 15 16 17 18 18 19 20 20 21 22 23 24 25 26 26 27 28 29 30 31 31 32 32 32 33 33 33 33 33 33 33 33 33 33 33 34 34 34 34 35 35 36 36 37 38 38 38 39 39 40 41 41 41 41 40 39 37 35 35 38 40 42 43 43 43 43 42 41 41 40 40 40 40 40 40
Wind_Direction
266 265 264 262 260 258 257 257 258 259 259 257 257 257 258 259 260 261 260 260 259 259 260 261 261 262 262 262 262 262 262 262 261 260 259 260 261 261 260 260 259 261 262 262 262 262 262 263 263 264 263 262 263 263 264 264 264 264 263 262 260 259 257 254 255 263 273 276 275 277 277 276 275 272 265 261 261 257 247 240 240 244 249 251 252
266 266 265 263 261 259 258 258 258 259 258 257 257 258 259 259 260 259 259 259 260 259 261 261 261 261 261 262 263 263 263 263 262 261 260 261 261 261 261 260 260 261 261 261 262 262 262 263 263 264 262 261 261 262 263 262 262 262 262 261 261 260 259 257 256 258 266 274 274 273 274 273 271 270 267 265 265 262 255 250 249 253 257 258 258
265 266 266 264 263 262 260 258 258 257 257 257 258 259 260 260 260 259 259 260 260 260 261 261 261 261 261 262 263 263 263 263 263 262 262 262 262 262 262 262 261 262 262 262 263 263 263 264 265 264 262 260 260 261 261 261 260 260 261 261 261 261 261 260 258 256 260 269 274 272 272 271 270 270 269 267 266 264 261 258 255 256 258 260 262
261 263 264 264 264 263 260 258 257 257 257 257 258 259 260 260 260 259 260 260 260 260 261 261 261 261 261 262 263 263 263 263 263 263 263 263 263 263 263 263 263 263 264 264 265 264 264 265 266 265 263 261 261 261 260 259 259 259 260 260 260 260 261 261 260 258 259 264 270 272 271 270 271 271 270 268 266 265 265 262 257 255 258 261 263
257 259 261 262 262 261 259 257 256 256 256 257 258 259 260 261 261 261 261 261 261 262 262 261 261 261 262 262 263 263 264 264 264 264 264 265 265 265 265 265 265 265 266 266 266 266 265 266 266 266 264 262 261 261 261 260 260 259 259 260 260 260 262 261 260 259 258 259 264 269 268 267 269 269 268 267 266 267 267 263 258 256 259 260 261
255 257 258 259 259 258 257 255 254 254 255 256 257 259 260 260 260 261 261 262 262 262 262 262 262 262 263 264 264 264 264 264 264 264 265 265 265 265 265 265 266 266 266 266 266 267 266 266 267 266 264 263 262 262 262 262 262 260 260 261 261 261 261 261 261 259 258 258 262 265 265 266 268 269 269 268 267 268 267 265 264 263 261 260 260
253 255 257 258 258 257 255 254 254 255 255 257 258 258 259 259 259 259 260 260 261 262 262 262 263 263 263 263 263 263 263 263 263 263 264 264 264 265 265 265 266 266 266 267 267 267 267 267 267 267 265 264 263 264 264 264 264 263 264 264 263 260 259 260 261 260 260 261 262 262 263 265 266 267 268 269 269 267 263 262 265 265 262 263 264
255 257 259 259 259 259 258 256 255 255 256 256 257 257 257 256 256 256 257 258 259 260 262 262 263 263 262 262 262 262 262 262 262 262 262 263 263 264 264 265 266 266 267 267 267 267 268 268 268 267 267 266 265 266 266 266 266 265 266 265 263 260 259 260 260 260 260 261 261 262 262 263 264 265 267 268 266 263 259 259 262 262 263 268 270
268 271 271 270 269 266 263 259 257 255 255 255 256 256 255 254 254 253 254 255 256 257 258 259 260 259 259 260 260 260 261 260 260 260 260 261 262 263 264 265 266 267 267 267 268 268 268 269 269 268 268 267 267 268 268 268 268 267 268 266 263 261 260 260 260 260 260 260 261 262 261 260 262 264 265 266 266 265 262 260 262 264 267 271 272
283 288 287 284 277 271 266 262 258 255 253 254 254 255 255 253 252 250 250 250 250 251 252 252 253 254 255 256 257 258 259 259 259 259 259 260 261 262 264 265 265 267 267 268 268 268 269 269 269 269 269 269 269 269 269 270 269 269 269 267 265 263 261 260 259 259 259 260 261 261 259 260 262 263 264 264 266 265 261 260 264 267 267 270 271
275 285 292 291 284 277 272 268 263 258 254 253 253 253 252 252 251 249 248 247 246 246 246 247 248 249 251 253 253 254 254 254 255 256 257 258 259 260 262 263 264 265 266 267 268 268 269 269 269 269 269 269 268 268 268 269 269 269 269 268 267 265 263 262 261 261 261 261 262 261 260 261 263 263 262 262 263 263 261 263 266 265 264 268 268
269 276 285 290 290 285 278 273 268 263 258 254 252 251 250 249 249 248 246 245 244 244 245 245 246 248 249 249 249 249 250 250 252 253 255 256 257 259 260 261 263 264 265 265 266 267 268 268 269 269 269 269 269 269 269 269 269 270 270 270 268 267 265 264 263 263 262 263 264 262 260 263 264 263 262 265 268 267 265 265 264 262 265 267 263
273 277 280 287 290 284 277 272 269 265 261 257 252 248 248 247 247 248 247 247 247 247 246 246 246 246 246 246 247 247 248 249 250 252 254 256 256 258 259 260 261 262 263 264 266 267 268 268 268 269 269 270 270 270 270 271 272 273 273 273 270 268 267 267 267 267 266 266 265 264 263 265 266 267 268 270 274 271 265 263 264 265 267 264 261
287 288 285 284 281 273 266 263 262 260 258 255 250 244 243 244 246 248 248 248 247 246 246 245 245 245 245 246 248 249 250 251 251 252 254 255 256 256 257 258 259 260 261 262 263 265 266 268 269 270 271 272 271 272 272 272 274 274 274 273 271 269 267 266 266 266 266 266 265 266 268 267 268 274 273 272 275 273 264 264 267 269 270 269 268
298 297 290 281 271 260 253 251 254 255 254 253 250 245 241 239 240 243 243 243 243 243 243 243 242 243 245 246 248 248 249 250 252 253 254 255 256 257 257 258 258 259 261 262 262 263 264 265 267 268 270 271 271 272 271 270 270 269 270 269 268 268 266 264 264 264 264 264 264 265 268 267 269 273 271 270 275 273 269 270 270 270 273 272 269
296 292 284 274 263 251 244 241 241 243 244 245 245 244 243 240 237 237 237 238 238 239 239 240 240 242 243 245 247 247 248 251 253 254 254 254 255 255 255 255 255 256 258 260 260 260 259 259 259 261 263 264 265 265 265 267 269 270 271 271 272 271 269 266 265 264 263 264 264 265 267 266 268 269 267 271 274 270 270 274 268 267 270 265 262
283 277 272 265 255 245 238 231 226 226 229 233 236 237 238 239 238 239 240 241 241 241 242 242 242 242 243 244 246 249 251 253 254 254 253 254 255 256 256 257 258 259 260 261 261 261 260 259 259 259 261 262 263 264 266 269 271 271 270 271 271 272 271 270 269 266 264 264 264 265 266 264 265 266 264 267 269 264 266 268 262 263 267 259 258
267 264 262 258 252 246 241 236 232 231 232 236 239 239 240 241 243 246 249 251 251 251 250 249 247 247 247 247 250 254 257 258 259 260 260 261 262 263 265 266 267 268 269 269 269 268 268 266 264 263 264 264 263 263 262 262 263 262 264 266 267 267 267 268 268 267 266 265 263 264 263 261 262 263 260 261 265 263 262 261 258 264 265 256 258
257 258 259 259 255 252 250 248 246 246 248 252 255 257 259 259 259 260 261 262 261 260 259 259 259 259 260 259 259 260 262 263 264 266 265 265 267 269 270 272 274 275 277 277 276 275 273 273 272 271 271 270 267 264 261 259 260 261 262 264 266 266 267 267 268 268 269 268 265 264 263 261 260 260 259 261 264 263 259 255 257 264 261 255 261
256 256 257 256 253 250 247 246 247 251 257 264 268 272 273 274 275 275 275 274 273 273 273 273 273 272 271 270 270 270 270 269 269 270 270 269 270 272 273 275 277 279 280 279 278 278 277 279 280 279 278 276 273 270 265 261 261 262 261 260 262 266 269 270 270 271 271 270 269 268 267 265 263 263 264 264 261 258 256 256 260 263 257 254 265
248 246 247 248 248 248 244 241 242 246 253 260 266 271 275 278 281 283 284 286 287 287 287 286 285 283 282 281 282 282 282 280 278 278 279 278 278 277 276 277 279 281 280 279 279 280 280 281 281 280 278 276 273 271 268 263 261 260 260 260 263 265 268 268 269 271 271 270 270 269 267 266 265 265 268 266 260 255 255 258 261 261 255 256 265
222 215 220 234 241 247 250 247 245 246 251 256 261 267 272 274 278 282 286 292 296 299 300 298 296 295 294 294 294 295 294 292 290 289 288 287 286 284 283 284 285 284 284 283 284 285 286 285 284 281 278 276 273 272 271 269 265 263 263 264 265 264 262 262 264 266 268 269 270 269 268 268 267 267 270 270 262 255 254 256 258 258 257 260 263
187 172 175 208 221 237 255 258 259 262 265 268 272 277 280 281 284 286 289 291 296 303 304 301 300 300 299 300 301 299 297 294 293 292 290 288 287 286 286 286 286 285 284 285 286 287 287 286 284 282 279 277 276 275 274 272 270 271 271 270 269 266 263 260 259 258 260 262 263 265 266 267 267 268 271 272 268 264 263 263 261 259 258 259 258
165 148 140 138 128 119 114 108 158 277 282 288 295 300 303 306 305 302 300 298 301 306 304 301 302 302 298 297 298 297 294 293 293 292 289 286 286 287 287 286 285 283 282 284 286 287 287 286 285 283 282 281 279 278 276 274 273 273 273 270 267 264 262 261 259 258 257 257 258 259 261 262 264 267 270 273 273 271 269 269 268 263 257 255 254
160 132 119 113 109 104 99 99 98 91 88 65 43 42 18 6 354 337 331 325 320 320 313 308 310 309 302 298 298 298 298 296 294 290 288 288 290 291 291 290 288 286 285 287 289 291 290 290 289 288 288 287 285 283 280 279 277 275 274 272 268 265 261 260 259 258 257 256 257 259 261 262 264 267 270 272 270 266 264 268 270 265 255 252 252
174 147 130 126 121 117 114 114 110 104 102 94 80 74 61 53 45 21 15 9 353 349 341 328 328 328 322 317 316 317 312 303 297 294 294 295 295 293 293 294 294 292 291 294 296 295 293 293 293 293 292 290 288 287 286 285 283 279 277 274 271 269 266 263 261 260 259 259 258 259 262 264 267 268 268 266 264 263 266 269 268 261 253 249 248
178 167 159 161 161 158 151 137 127 123 122 115 104 94 82 68 53 32 34 35 23 15 4 351 349 350 346 342 344 351 340 318 311 311 311 309 306 303 301 299 297 295 295 297 298 295 295 297 297 296 295 293 291 291 290 290 288 286 283 279 275 273 269 264 261 260 262 264 264 264 264 265 265 266 265 265 265 267 269 268 264 259 253 248 248
192 188 186 192 194 203 210 202 187 186 137 80 34 19 23 23 15 3 -0 3 7 15 13 4 2 2 358 350 349 1 359 342 334 332 329 324 320 317 314 309 305 302 302 301 298 298 301 304 303 302 301 300 297 295 294 293 291 290 289 287 284 282 277 270 263 259 259 260 263 266 266 265 264 263 263 264 266 268 268 265 261 259 253 249 253
229 237 248 265 276 284 294 300 304 311 316 322 326 325 324 327 332 334 333 331 329 330 335 338 336 337 340 338 335 339 345 345 343 341 338 336 333 330 327 323 317 314 311 306 303 305 309 310 309 309 308 305 303 302 299 296 293 291 290 288 286 284 281 276 273 270 266 262 260 261 263 265 267 266 263 263 264 264 263 261 258 256 253 253 258
252 261 270 282 289 298 309 313 316 320 320 320 322 323 321 320 320 320 321 322 321 317 315 316 315 313 315 317 318 321 323 324 325 325 325 326 327 328 329 330 328 325 321 315 313 316 319 317 316 317 316 313 313 313 311 306 301 297 295 290 286 284 281 279 278 277 274 269 265 263 262 264 266 265 263 263 263 262 261 260 258 256 256 258 258
261 270 281 289 294 301 305 308 314 318 319 318 316 312 309 309 309 310 309 308 310 311 311 311 310 309 309 309 310 313 315 314 313 312 311 312 313 314 315 316 319 321 321 318 318 322 324 323 321 323 322 321 320 321 319 316 313 310 305 298 292 287 284 281 280 277 273 269 267 265 264 263 264 263 262 261 262 262 262 261 259 257 257 256 254
266 273 281 288 293 297 297 298 300 302 304 307 308 307 305 301 298 299 299 295 294 297 299 302 303 303 304 306 306 306 308 308 308 307 307 307 308 307 306 306 308 309 309 308 310 313 316 317 317 318 319 318 319 320 319 318 319 317 314 309 305 299 292 287 284 279 272 268 265 262 260 259 261 263 262 260 260 260 259 258 257 256 256 255 251
259 264 271 279 285 290 293 294 295 295 296 298 301 305 308 307 304 302 301 300 299 297 297 300 302 302 302 303 304 305 304 304 304 302 302 303 304 303 302 302 303 303 302 301 301 303 305 307 308 309 311 310 311 312 312 313 314 315 313 312 311 309 305 298 288 279 273 270 267 263 259 258 259 261 262 262 261 260 259 258 257 255 253 250 248
264 272 279 285 290 296 300 302 304 307 307 307 308 310 312 314 312 309 306 304 304 304 305 307 307 306 305 305 306 306 304 302 300 299 299 300 301 299 298 298 299 299 299 299 299 299 300 300 300 301 303 303 304 305 304 305 306 307 307 308 308 308 306 301 292 284 280 276 271 267 264 262 260 260 261 261 262 262 262 260 258 256 253 250 249
286 292 297 300 302 304 307 308 310 311 312 313 314 314 314 315 316 315 312 310 307 306 308 310 311 309 307 306 307 306 304 301 299 298 298 300 301 299 297 296 297 296 294 295 296 297 298 298 297 297 298 298 299 300 300 300 301 301 301 302 302 302 301 297 291 286 283 279 275 272 268 266 265 264 263 263 262 262 261 260 259 257 256 255 254
295 299 302 305 308 310 312 313 314 314 315 315 315 315 316 316 315 315 314 312 310 307 307 309 310 310 309 309 308 306 305 304 303 301 302 303 303 302 301 300 300 299 297 296 296 295 294 294 294 294 294 293 292 293 293 294 295 297 298 299 300 299 298 296 292 288 283 279 277 275 272 268 266 266 266 265 264 263 262 261 260 258 257 256 254
310 311 313 314 315 316 316 317 317 317 317 317 316 315 315 315 315 314 313 313 312 310 308 308 309 308 309 310 310 308 306 305 305 305 306 307 306 305 304 304 303 302 301 301 301 299 297 295 294 292 291 289 288 287 286 286 287 289 291 294 295 296 296 295 293 290 285 279 275 273 271 268 266 265 265 265 264 264 262 260 258 256 254 253 250
319 319 319 318 317 317 317 317 317 316 316 315 314 314 313 313 312 312 311 311 311 311 310 310 310 309 309 310 309 308 307 305 305 305 306 307 308 308 307 306 305 304 303 303 303 302 300 299 298 296 294 291 289 287 285 285 284 284 285 286 287 289 291 292 292 291 288 284 280 275 271 267 264 263 262 262 263 263 262 260 257 254 251 249 246
321 321 320 318 318 318 317 316 316 315 314 314 313 312 312 311 311 310 310 310 310 310 311 312 311 311 311 310 309 309 308 307 306 306 306 307 307 308 308 307 306 306 305 305 304 303 301 300 299 298 296 294 292 290 288 287 285 285 284 282 282 283 284 285 287 288 287 286 284 280 275 270 266 263 262 261 261 261 261 259 257 255 253 251 249
321 321 321 320 320 319 318 318 317 315 315 315 314 313 312 312 312 311 311 310 310 311 311 312 312 312 312 311 311 310 308 307 308 308 308 308 308 307 307 307 306 305 305 304 304 303 302 300 299 298 296 295 293 292 291 289 288 287 285 284 282 281 281 281 282 282 283 284 283 280 277 273 269 264 261 261 261 260 260 260 259 258 258 256 254
318 319 319 319 320 319 319 319 318 318 318 317 316 316 316 315 314 313 312 312 312 312 312 312 312 313 313 312 311 310 308 306 306 307 307 307 307 306 306 305 304 303 302 301 301 300 298 297 295 294 293 292 291 291 290 288 287 286 285 284 283 281 280 279 278 278 279 279 279 278 276 273 268 263 259 259 259 260 260 260 260 260 259 257 254
315 316 316 317 317 317 317 318 317 317 317 317 317 317 318 317 317 316 316 316 316 315 315 315 315 316 316 315 314 313 310 308 307 307 307 307 307 306 306 305 303 302 301 300 299 298 297 295 293 292 290 289 289 288 287 286 285 283 283 282 282 281 280 279 278 277 276 275 275 275 274 271 266 262 259 258 257 257 257 258 258 258 256 253 250
315 316 317 317 317 318 318 317 318 318 318 318 319 319 319 320 320 320 320 320 320 320 320 319 319 319 318 317 317 315 313 312 311 310 309 308 308 308 308 308 307 305 303 302 301 300 299 297 294 292 291 289 287 286 284 283 282 281 280 279 278 278 278 278 277 277 276 274 273 272 270 267 264 261 258 256 254 252 253 253 254 253 251 249 247
319 321 322 322 322 323 322 322 323 324 324 325 326 327 327 327 327 327 327 327 327 327 326 325 325 323 321 321 320 318 316 314 313 312 312 312 313 312 312 311 310 309 308 307 306 305 304 301 299 297 296 294 292 290 287 284 282 281 280 280 279 278 276 275 275 275 274 273 272 271 269 266 263 260 257 255 252 250 249 249 248 247 246 244 242
327 330 332 333 334 336 337 338 339 340 341 342 342 342 342 340 339 339 339 338 337 336 334 333 331 329 326 326 325 323 320 318 316 315 315 313 311 309 308 307 307 307 307 306 304 303 302 301 300 299 299 298 297 295 292 289 284 280 276 275 275 274 274 274 275 275 273 272 271 270 269 268 266 262 258 255 252 249 248 247 247 245 243 241 238
351 353 354 354 355 357 359 1 2 3 5 6 5 5 5 3 360 358 356 352 348 345 341 338 335 333 331 330 328 326 325 323 321 319 317 314 311 310 310 309 306 303 299 298 297 297 296 296 297 298 299 299 299 298 297 295 293 288 283 278 275 275 275 276 276 275 273 271 269 268 268 267 266 263 260 257 254 251 249 248 246 245 242 240 237
26 28 28 30 31 32 32 32 31 31 30 28 26 24 23 20 16 13 8 4 359 354 349 346 344 341 338 336 333 330 328 325 323 321 319 317 316 314 312 309 305 303 303 304 307 306 304 300 296 294 292 292 292 291 291 292 293 292 290 287 284 282 281 279 278 276 274 273 272 270 269 267 265 263 261 257 254 251 249 247 246 244 242 239 236
50 51 52 52 52 51 49 47 46 44 42 39 37 35 33 30 26 23 19 15 11 6 2 359 355 351 347 344 340 337 333 330 326 323 321 318 316 314 311 308 306 305 305 304 303 301 297 293 291 290 289 289 288 288 288 288 287 287 286 284 282 281 279 278 276 274 273 273 273 272 270 268 266 264 261 258 254 251 248 246 244 242 239 236 233
55 55 55 55 54 52 50 48 46 45 43 42 40 38 36 33 29 26 23 20 17 13 10 6 3 360 356 353 349 345 341 336 332 329 325 322 319 317 315 313 310 308 306 303 300 297 295 294 294 294 293 292 290 288 287 286 284 283 281 280 279 279 278 275 273 270 269 269 270 271 270 268 266 264 261 258 255 251 247 244 242 239 236 232 228
48 48 49 48 48 46 44 42 41 38 37 36 35 34 33 31 28 25 23 20 18 16 13 10 7 5 2 359 356 352 348 344 340 335 332 328 325 321 319 316 314 313 311 309 306 305 303 302 300 298 295 293 291 289 288 286 284 282 280 279 278 277 276 275 272 269 266 266 268 269 268 266 264 261 259 256 253 248 244 241 238 236 233 229 225
37 39 39 39 39 38 35 34 33 30 29 29 29 27 27 26 25 23 21 19 16 16 15 12 10 9 7 5 3 360 356 352 348 343 338 334 330 326 324 322 320 318 316 313 311 310 308 306 304 301 299 297 295 293 291 289 287 286 284 282 280 278 277 275 273 269 266 266 268 269 267 264 261 258 255 253 249 245 241 239 236 232 229 226 222